TimeEST,TemperatureF,Dew PointF,Humidity,Sea Level PressureIn,VisibilityMPH,Wind Direction,Wind SpeedMPH,Gust SpeedMPH,PrecipitationIn,Events,Conditions,WindDirDegrees,DateUTC
12:56 AM,57.0,55.0,93,30.05,10.0,SW,4.6,-,N/A,,Clear,220,2012-11-04 04:56:00
1:56 AM,57.9,55.9,93,30.04,10.0,SW,4.6,-,N/A,,Clear,220,2012-11-04 05:56:00
1:56 AM,61.0,55.9,83,30.04,10.0,SSW,4.6,-,N/A,,Clear,210,2012-11-04 06:56:00
2:56 AM,62.1,57.0,84,30.02,10.0,SSW,5.8,-,N/A,,Clear,210,2012-11-04 07:56:00
3:56 AM,60.1,55.9,86,30.01,10.0,SW,6.9,-,N/A,,Clear,230,2012-11-04 08:56:00
4:56 AM,59.0,55.9,90,30.03,10.0,WSW,6.9,-,N/A,,Clear,250,2012-11-04 09:56:00
5:56 AM,59.0,55.9,90,30.03,9.0,SW,6.9,-,N/A,,Clear,230,2012-11-04 10:56:00
6:56 AM,57.9,55.9,93,30.03,7.0,SW,6.9,-,N/A,,Clear,230,2012-11-04 11:56:00
7:56 AM,62.1,57.9,86,30.04,10.0,SW,5.8,-,N/A,,Clear,230,2012-11-04 12:56:00
8:56 AM,68.0,59.0,73,30.04,10.0,WSW,8.1,-,N/A,,Clear,250,2012-11-04 13:56:00
9:56 AM,73.9,57.9,57,30.02,10.0,West,6.9,-,N/A,,Clear,260,2012-11-04 14:56:00
10:56 AM,78.1,57.9,50,30.01,10.0,West,6.9,-,N/A,,Clear,270,2012-11-04 15:56:00
11:56 AM,80.1,55.9,43,29.98,10.0,West,9.2,-,N/A,,Clear,280,2012-11-04 16:56:00
12:56 PM,82.9,55.9,39,29.96,10.0,Variable,5.8,16.1,N/A,,Clear,0,2012-11-04 17:56:00
1:56 PM,84.0,53.1,34,29.94,10.0,West,10.4,-,N/A,,Clear,270,2012-11-04 18:56:00
2:56 PM,82.9,52.0,34,29.93,10.0,WSW,11.5,-,N/A,,Clear,250,2012-11-04 19:56:00
3:56 PM,78.1,60.1,54,29.91,10.0,South,6.9,-,N/A,,Clear,170,2012-11-04 20:56:00
4:56 PM,73.9,62.1,66,29.91,10.0,South,8.1,-,N/A,,Clear,190,2012-11-04 21:56:00
5:56 PM,72.0,61.0,68,29.92,10.0,WSW,3.5,-,N/A,Thunderstorm,Thunderstorm,250,2012-11-04 22:56:00
6:10 PM,69.8,60.8,73,29.92,10.0,Calm,Calm,-,N/A,,Mostly Cloudy,0,2012-11-04 23:10:00
6:40 PM,66.2,60.8,83,29.93,10.0,WSW,5.8,-,N/A,Thunderstorm,Thunderstorm,250,2012-11-04 23:40:00
6:56 PM,68.0,57.9,70,29.94,10.0,WNW,8.1,-,N/A,Rain,Light Rain,290,2012-11-04 23:56:00
7:46 PM,64.4,59.0,83,29.93,7.0,Variable,3.5,-,N/A,Rain-Thunderstorm,Light Thunderstorms and Rain,0,2012-11-05 00:46:00
7:56 PM,63.0,60.1,90,29.93,10.0,SSW,4.6,-,N/A,Thunderstorm,Overcast,210,2012-11-05 00:56:00
8:05 PM,62.6,60.8,94,29.94,10.0,West,8.1,-,N/A,,Overcast,270,2012-11-05 01:05:00
8:45 PM,62.6,60.8,94,29.92,10.0,Calm,Calm,-,N/A,Thunderstorm,Thunderstorm,0,2012-11-05 01:45:00
8:56 PM,62.1,60.1,93,29.93,10.0,SSW,5.8,-,N/A,,Mostly Cloudy,210,2012-11-05 01:56:00
9:23 PM,62.6,59.0,88,29.93,10.0,SW,4.6,-,N/A,Thunderstorm,Thunderstorm,230,2012-11-05 02:23:00
9:39 PM,62.6,59.0,88,29.92,10.0,Calm,Calm,-,N/A,,Mostly Cloudy,0,2012-11-05 02:39:00
9:56 PM,62.1,59.0,90,29.93,10.0,West,6.9,-,N/A,,Scattered Clouds,260,2012-11-05 02:56:00
10:56 PM,62.1,59.0,90,29.93,10.0,Calm,Calm,-,N/A,,Clear,0,2012-11-05 03:56:00